Location: Bas-Clignon
(44.2000°N, 6.6333°E)
Time: 13:04:15
(UTC+00:00)

COSMOS 2428 - Pass Details

Date: 03 February 2023
Orbit: 843 x 858 km, 70.9° (Epoch: 20 March)

Event Time Altitude Azimuth Distance (km) Brightness Sun altitude
Rises 18:25:57 0° 172° (S) 3,389 5.8 -18.2°
Reaches altitude 10° 18:28:39 10° 162° (SSE) 2,457 5.0 -18.7°
Enters shadow 18:32:24 27° 123° (ESE) 1,552 3.6 -19.4°
